Location: Newark
(25.4800°N, 85.7200°E)
Time: 07:16:20
(UTC+00:00)

Courier 1B - All Passes

Search period start: 24 August 2019 00:00
Search period end: 03 September 2019 00:00
Orbit: 962 x 1209 km, 28.3° (Epoch: 23 August)

Date Brightness Start Highest point End Pass type
(mag) Time Alt. Az. Time Alt. Az. Time Alt. Az.
24 Aug - 08:16:42 10° SSW 08:22:23 24° SSE 08:27:49 10° E daylight
24 Aug - 10:09:11 10° WSW 10:16:15 63° SSE 10:22:54 10° E daylight
24 Aug - 12:03:33 10° W 12:10:26 75° N 12:16:59 10° ENE daylight
24 Aug - 13:58:09 10° WNW 14:04:47 73° N 14:11:15 10° E visible
24 Aug - 15:52:27 10° W 15:58:51 64° SSW 16:05:18 10° ESE visible
24 Aug - 17:47:34 10° W 17:52:31 23° SSW 17:57:34 10° SSE night (unlit)
25 Aug - 07:23:50 10° S 07:28:36 18° SSE 07:33:12 10° ESE daylight
25 Aug - 09:15:26 10° SW 09:22:29 51° SSE 09:29:05 10° E daylight
25 Aug - 11:09:30 10° W 11:16:35 83° N 11:23:15 10° ENE daylight
25 Aug - 13:04:13 10° W 13:10:58 70° N 13:17:26 10° E visible
25 Aug - 14:58:36 10° WNW 15:05:10 79° SSW 15:11:37 10° ESE visible
25 Aug - 16:53:19 10° W 16:58:53 31° SSW 17:04:32 10° SSE visible
26 Aug - 06:31:42 10° S 06:34:47 13° SSE 06:37:48 10° SE daylight
26 Aug - 08:21:48 10° SW 08:28:41 40° SSE 08:35:10 10° E daylight
26 Aug - 10:15:29 10° WSW 10:22:44 87° SSE 10:29:32 10° ENE daylight
26 Aug - 12:10:12 10° W 12:17:06 69° N 12:23:39 10° E daylight
26 Aug - 14:04:43 10° WNW 14:11:24 89° N 14:17:54 10° ESE visible
26 Aug - 15:59:13 10° W 16:05:15 41° SSW 16:11:17 10° SE visible
26 Aug - 17:56:35 10° SW 17:58:48 12° SSW 18:01:03 10° SSW night (unlit)
27 Aug - 07:28:21 10° SSW 07:34:52 31° SSE 07:41:05 10° E daylight
27 Aug - 09:21:29 10° WSW 09:28:53 74° SSE 09:35:48 10° ENE daylight
27 Aug - 11:16:07 10° W 11:23:12 72° N 11:29:53 10° E daylight
27 Aug - 13:10:48 10° WNW 13:17:38 79° N 13:24:09 10° E visible
27 Aug - 15:05:14 10° W 15:11:37 53° SSW 15:17:52 10° SE visible
27 Aug - 17:01:07 10° WSW 17:05:11 17° SSW 17:09:15 10° S night (unlit)
28 Aug - 06:35:08 10° SSW 06:41:03 24° SSE 06:46:44 10° E daylight
28 Aug - 08:27:35 10° WSW 08:35:01 62° SSE 08:42:01 10° E daylight
28 Aug - 10:22:01 10° W 10:29:18 77° N 10:36:09 10° ENE daylight
28 Aug - 12:16:49 10° W 12:23:47 73° N 12:30:22 10° E daylight
28 Aug - 14:11:17 10° W 14:17:56 67° SSW 14:24:21 10° ESE visible
28 Aug - 16:06:29 10° W 16:11:33 24° SSW 16:16:37 10° SSE visible
29 Aug - 05:42:20 10° S 05:47:13 18° SSE 05:51:59 10° ESE daylight
29 Aug - 07:33:48 10° SW 07:41:09 50° SSE 07:48:08 10° E daylight
29 Aug - 09:27:54 10° W 09:35:23 85° NNW 09:42:24 10° ENE daylight
29 Aug - 11:22:44 10° W 11:29:53 70° N 11:36:35 10° E daylight
29 Aug - 13:17:20 10° WNW 13:24:12 81° SSW 13:30:44 10° ESE visible
29 Aug - 15:12:10 10° W 15:17:57 33° SSW 15:23:37 10° SE visible
30 Aug - 04:50:21 10° S 04:53:22 12° SSE 04:56:20 10° SE daylight
30 Aug - 06:40:10 10° SW 06:47:17 39° SSE 06:54:07 10° E daylight
30 Aug - 08:33:48 10° WSW 08:41:28 85° SSE 08:48:39 10° ENE daylight
30 Aug - 10:28:37 10° W 10:35:57 70° N 10:42:48 10° E daylight
30 Aug - 12:23:21 10° WNW 12:30:24 87° NNE 12:37:03 10° ESE daylight
30 Aug - 14:18:00 10° W 14:24:19 44° SSW 14:30:25 10° SE visible
30 Aug - 16:15:08 10° WSW 16:17:48 13° SSW 16:20:29 10° S visible
31 Aug - 05:46:46 10° SSW 05:53:26 31° SSE 05:59:55 10° E daylight
31 Aug - 07:39:48 10° WSW 07:47:31 73° SSE 07:54:50 10° ENE daylight
31 Aug - 09:34:28 10° W 09:41:59 73° N 09:49:01 10° E daylight
31 Aug - 11:29:18 10° WNW 11:36:32 78° N 11:43:18 10° E daylight
31 Aug - 13:23:55 10° W 13:30:39 57° SSW 13:37:03 10° SE visible
31 Aug - 15:19:47 10° WSW 15:24:12 19° SSW 15:28:33 10° SSE visible
01 Sep - 04:53:39 10° SSW 04:59:34 23° SSE 05:05:25 10° E daylight
01 Sep - 06:45:55 10° SW 06:53:35 60° SSE 07:00:57 10° E daylight
01 Sep - 08:40:18 10° W 08:48:00 79° N 08:55:14 10° ENE daylight
01 Sep - 10:35:13 10° W 10:42:37 73° N 10:49:31 10° E daylight
01 Sep - 12:29:52 10° WNW 12:36:55 71° SSW 12:43:32 10° ESE daylight
01 Sep - 14:25:07 10° W 14:30:36 26° SSW 14:35:54 10° SSE visible
02 Sep - 04:01:00 10° S 04:05:44 17° SSE 04:10:26 10° ESE daylight
02 Sep - 05:52:11 10° SW 05:59:40 48° SSE 06:06:58 10° E daylight
02 Sep - 07:46:10 10° WSW 07:53:59 87° NNW 08:01:25 10° ENE daylight
02 Sep - 09:41:04 10° W 09:48:38 71° N 09:55:42 10° E daylight
02 Sep - 11:35:49 10° WNW 11:43:06 84° SSW 11:49:55 10° ESE daylight
02 Sep - 13:30:45 10° W 13:36:58 36° SSW 13:42:54 10° SE visible
